When you browse on this site, cookies collect data to enhance your experience and personalize the content and advertising you see.
Visit our Privacy Policy to learn more. By continuing to use the site, you agree to this use of cookies and data.
  • Em Portugal
  • Lista de países
  • Para 7 dias
  • Temperatura da água
  • Mapas de satélite
  • Mapa do tempo
  • Widgets de tempo
  • user-avatar
    Iniciar Sessão

    Previsão horária em Shannon

    Hoje, 16 Julho, Terça-feira

    Tempo Temperatura Precipitação Vento Pressão Humidade
    00:00 +15°C° 0 mm 1 m/s 764 mmHg 95%
    01:00 +15°C° 0 mm 1 m/s 764 mmHg 96%
    02:00 +15°C° 0 mm 1 m/s 763 mmHg 96%
    03:00 +15°C° 0 mm 1 m/s 763 mmHg 96%
    04:00 +15°C° 0 mm 1 m/s 763 mmHg 96%
    05:00 +16°C° 0 mm 1 m/s 763 mmHg 96%
    06:00 +18°C° 0.1 mm 1 m/s 763 mmHg 92%
    07:00 +19°C° 0.1 mm 1 m/s 763 mmHg 87%
    08:00 +19°C° 0.1 mm 2 m/s 763 mmHg 83%
    09:00 +20°C° 0 mm 2 m/s 763 mmHg 76%
    10:00 +21°C° 0 mm 2 m/s 763 mmHg 69%
    11:00 +21°C° 0 mm 3 m/s 762 mmHg 62%
    12:00 +22°C° 0 mm 3 m/s 762 mmHg 60%
    13:00 +22°C° 0 mm 3 m/s 762 mmHg 59%
    14:00 +22°C° 0 mm 4 m/s 762 mmHg 57%
    15:00 +21°C° 0 mm 4 m/s 762 mmHg 61%
    16:00 +21°C° 0 mm 4 m/s 762 mmHg 64%
    17:00 +20°C° 0 mm 4 m/s 762 mmHg 68%
    18:00 +18°C° 0 mm 3 m/s 762 mmHg 74%
    19:00 +17°C° 0 mm 3 m/s 762 mmHg 79%
    20:00 +16°C° 0 mm 2 m/s 762 mmHg 85%
    21:00 +15°C° 0 mm 2 m/s 761 mmHg 87%
    22:00 +14°C° 0 mm 2 m/s 761 mmHg 90%
    23:00 +14°C° 0 mm 2 m/s 761 mmHg 92%

    Amanhã, 17 Julho, Quarta-feira

    Tempo Temperatura Precipitação Vento Pressão Humidade
    00:00 +14°C° 0 mm 2 m/s 760 mmHg 91%
    01:00 +14°C° 0 mm 2 m/s 760 mmHg 90%
    02:00 +14°C° 0 mm 2 m/s 759 mmHg 90%
    03:00 +14°C° 0.1 mm 2 m/s 759 mmHg 89%
    04:00 +14°C° 0.1 mm 3 m/s 758 mmHg 89%
    05:00 +14°C° 0.1 mm 3 m/s 758 mmHg 88%
    06:00 +14°C° 0.3 mm 3 m/s 758 mmHg 89%
    07:00 +16°C° 0.3 mm 3 m/s 758 mmHg 90%
    08:00 +17°C° 0.3 mm 4 m/s 757 mmHg 90%
    09:00 +15°C° 0.5 mm 4 m/s 757 mmHg 92%
    10:00 +15°C° 0.5 mm 4 m/s 757 mmHg 93%
    11:00 +15°C° 0.5 mm 4 m/s 757 mmHg 94%
    12:00 +17°C° 0.5 mm 4 m/s 756 mmHg 93%
    13:00 +18°C° 0.5 mm 4 m/s 756 mmHg 92%
    14:00 +19°C° 0.5 mm 4 m/s 756 mmHg 91%
    15:00 +18°C° 0.5 mm 4 m/s 756 mmHg 91%
    16:00 +18°C° 0.5 mm 4 m/s 756 mmHg 92%
    17:00 +17°C° 0.5 mm 4 m/s 756 mmHg 92%
    18:00 +15°C° 0 mm 4 m/s 756 mmHg 92%
    19:00 +14°C° 0 mm 3 m/s 757 mmHg 92%
    20:00 +13°C° 0 mm 3 m/s 757 mmHg 92%
    21:00 +14°C° 0 mm 2 m/s 757 mmHg 92%
    22:00 +14°C° 0 mm 2 m/s 757 mmHg 91%
    23:00 +13°C° 0 mm 2 m/s 757 mmHg 91%

    Depois de amanhã, 18 Julho, Quinta-feira

    Tempo Temperatura Precipitação Vento Pressão Humidade
    00:00 +13°C° 0 mm 2 m/s 757 mmHg 91%
    01:00 +14°C° 0 mm 2 m/s 757 mmHg 90%
    02:00 +14°C° 0 mm 2 m/s 757 mmHg 90%
    03:00 +14°C° 0.1 mm 2 m/s 757 mmHg 90%
    04:00 +14°C° 0.1 mm 2 m/s 757 mmHg 90%
    05:00 +14°C° 0.1 mm 2 m/s 757 mmHg 90%
    06:00 +14°C° 0.1 mm 3 m/s 757 mmHg 86%
    07:00 +15°C° 0.1 mm 4 m/s 757 mmHg 81%
    08:00 +15°C° 0.1 mm 5 m/s 757 mmHg 77%
    09:00 +16°C° 0.1 mm 5 m/s 757 mmHg 74%
    10:00 +17°C° 0.1 mm 5 m/s 757 mmHg 70%
    11:00 +17°C° 0.1 mm 5 m/s 757 mmHg 67%
    12:00 +17°C° 0.1 mm 5 m/s 757 mmHg 69%
    13:00 +17°C° 0.1 mm 5 m/s 757 mmHg 70%
    14:00 +17°C° 0.1 mm 6 m/s 757 mmHg 72%
    15:00 +17°C° 0 mm 5 m/s 757 mmHg 72%
    16:00 +16°C° 0 mm 5 m/s 757 mmHg 72%
    17:00 +16°C° 0 mm 5 m/s 757 mmHg 72%
    18:00 +15°C° 0.1 mm 4 m/s 757 mmHg 78%
    19:00 +14°C° 0.1 mm 3 m/s 757 mmHg 85%
    20:00 +14°C° 0.1 mm 2 m/s 758 mmHg 91%
    21:00 +13°C° 0 mm 2 m/s 757 mmHg 92%
    22:00 +13°C° 0 mm 2 m/s 757 mmHg 94%
    23:00 +12°C° 0 mm 2 m/s 757 mmHg 96%

    19 Julho, Sexta-feira

    Tempo Temperatura Precipitação Vento Pressão Humidade
    00:00 +12°C° 0 mm 2 m/s 757 mmHg 95%
    01:00 +10°C° 0 mm 2 m/s 757 mmHg 95%
    02:00 +10°C° 0 mm 2 m/s 757 mmHg 95%
    03:00 +12°C° 0 mm 2 m/s 756 mmHg 93%
    04:00 +12°C° 0 mm 1 m/s 756 mmHg 91%
    05:00 +12°C° 0 mm 1 m/s 755 mmHg 89%
    06:00 +13°C° 0.1 mm 2 m/s 755 mmHg 88%
    07:00 +14°C° 0.1 mm 2 m/s 755 mmHg 86%
    08:00 +15°C° 0.1 mm 2 m/s 755 mmHg 85%
    09:00 +14°C° 1.3 mm 2 m/s 754 mmHg 88%
    10:00 +14°C° 1.3 mm 2 m/s 753 mmHg 92%
    11:00 +13°C° 1.3 mm 3 m/s 753 mmHg 95%
    12:00 +13°C° 2.6 mm 3 m/s 752 mmHg 96%
    13:00 +12°C° 2.6 mm 3 m/s 752 mmHg 96%
    14:00 +12°C° 2.6 mm 4 m/s 751 mmHg 97%
    15:00 +12°C° 2.3 mm 4 m/s 751 mmHg 97%
    16:00 +12°C° 2.3 mm 4 m/s 751 mmHg 97%
    17:00 +12°C° 2.3 mm 4 m/s 751 mmHg 97%
    18:00 +12°C° 0.8 mm 4 m/s 751 mmHg 96%
    19:00 +12°C° 0.8 mm 4 m/s 751 mmHg 96%
    20:00 +13°C° 0.8 mm 4 m/s 752 mmHg 95%
    21:00 +12°C° 0 mm 3 m/s 752 mmHg 96%
    22:00 +12°C° 0 mm 3 m/s 752 mmHg 96%
    23:00 +13°C° 0 mm 2 m/s 752 mmHg 96%

    20 Julho, Sábado

    Tempo Temperatura Precipitação Vento Pressão Humidade
    00:00 +13°C° 0 mm 2 m/s 753 mmHg 96%
    01:00 +13°C° 0 mm 2 m/s 753 mmHg 96%
    02:00 +11°C° 0 mm 3 m/s 753 mmHg 95%
    03:00 +13°C° 0 mm 2 m/s 753 mmHg 95%
    04:00 +13°C° 0 mm 2 m/s 754 mmHg 94%
    05:00 +13°C° 0 mm 2 m/s 754 mmHg 94%
    06:00 +15°C° 0.1 mm 2 m/s 755 mmHg 88%
    07:00 +16°C° 0.1 mm 3 m/s 755 mmHg 82%
    08:00 +17°C° 0.1 mm 3 m/s 755 mmHg 77%
    09:00 +18°C° 0.1 mm 4 m/s 756 mmHg 74%
    10:00 +18°C° 0.1 mm 4 m/s 756 mmHg 71%
    11:00 +19°C° 0.1 mm 4 m/s 757 mmHg 67%
    12:00 +19°C° 0 mm 4 m/s 757 mmHg 67%
    13:00 +19°C° 0 mm 4 m/s 757 mmHg 68%
    14:00 +19°C° 0 mm 4 m/s 757 mmHg 68%
    15:00 +19°C° 0 mm 4 m/s 758 mmHg 69%
    16:00 +19°C° 0 mm 4 m/s 758 mmHg 70%
    17:00 +18°C° 0 mm 4 m/s 758 mmHg 71%
    18:00 +17°C° 0 mm 2 m/s 759 mmHg 78%
    19:00 +15°C° 0 mm 1 m/s 759 mmHg 84%
    20:00 +13°C° 0 mm 0 m/s 759 mmHg 91%
    21:00 +13°C° 0 mm 1 m/s 759 mmHg 92%
    22:00 +13°C° 0 mm 1 m/s 760 mmHg 93%
    23:00 +13°C° 0 mm 2 m/s 760 mmHg 94%

    21 Julho, Domingo

    Tempo Temperatura Precipitação Vento Pressão Humidade
    00:00 +13°C° 0 mm 2 m/s 760 mmHg 93%
    01:00 +14°C° 0 mm 2 m/s 759 mmHg 93%
    02:00 +14°C° 0 mm 2 m/s 759 mmHg 92%
    03:00 +14°C° 0 mm 2 m/s 760 mmHg 93%
    04:00 +14°C° 0 mm 2 m/s 760 mmHg 94%
    05:00 +15°C° 0 mm 2 m/s 760 mmHg 94%
    06:00 +16°C° 0 mm 3 m/s 760 mmHg 89%
    07:00 +18°C° 0 mm 3 m/s 761 mmHg 83%
    08:00 +20°C° 0 mm 4 m/s 761 mmHg 78%
    09:00 +21°C° 0 mm 4 m/s 761 mmHg 74%
    10:00 +22°C° 0 mm 4 m/s 761 mmHg 71%
    11:00 +23°C° 0 mm 4 m/s 762 mmHg 67%
    12:00 +23°C° 0 mm 5 m/s 762 mmHg 66%
    13:00 +25°C° 0 mm 5 m/s 762 mmHg 66%
    14:00 +25°C° 0 mm 5 m/s 762 mmHg 65%
    15:00 +23°C° 0.1 mm 5 m/s 762 mmHg 68%
    16:00 +23°C° 0.1 mm 5 m/s 762 mmHg 71%
    17:00 +22°C° 0.1 mm 4 m/s 762 mmHg 74%
    18:00 +21°C° 0 mm 5 m/s 762 mmHg 79%
    19:00 +20°C° 0 mm 5 m/s 762 mmHg 83%
    20:00 +17°C° 0 mm 5 m/s 762 mmHg 87%
    21:00 +17°C° 0 mm 5 m/s 761 mmHg 88%
    22:00 +17°C° 0 mm 5 m/s 761 mmHg 88%
    23:00 +16°C° 0 mm 5 m/s 761 mmHg 89%
    Mostrar mais